Location: Katowice
(50.2611°N, 19.0242°E)
Time: 10:55:19
(UTC+02:00)

Tiros 1 - Pass Details

Date: 31 August 2019
Orbit: 631 x 664 km, 48.4° (Epoch: 16 September)

Event Time Altitude Azimuth Distance (km) Brightness Sun altitude
Rises 22:50:15 0° 249° (WSW) 2,914 10.6 -26.2°
Reaches altitude 10° 22:52:35 10° 246° (WSW) 2,007 9.7 -26.4°
Enters shadow 22:53:11 14° 245° (WSW) 1,775 9.4 -26.5°
